When you browse on this site, cookies collect data to enhance your experience and personalize the content and advertising you see.
Visit our Privacy Policy to learn more. By continuing to use the site, you agree to this use of cookies and data.

Hourly Weather Bubanza

Today, 9 July, Thursday

Time Temperature Precipitation Wind Pressure Humidity
00:00 +22°C° 0 mm 1 mps 673 mmHg 65%
01:00 +22°C° 0 mm 1 mps 673 mmHg 66%
02:00 +21°C° 0 mm 1 mps 673 mmHg 67%
03:00 +21°C° 0 mm 1 mps 673 mmHg 67%
04:00 +22°C° 0 mm 1 mps 673 mmHg 66%
05:00 +22°C° 0 mm 1 mps 673 mmHg 66%
06:00 +23°C° 0 mm 1 mps 673 mmHg 62%
07:00 +24°C° 0 mm 1 mps 674 mmHg 58%
08:00 +25°C° 0 mm 1 mps 675 mmHg 54%
09:00 +27°C° 0 mm 2 mps 675 mmHg 50%
10:00 +29°C° 0 mm 2 mps 675 mmHg 45%
11:00 +30°C° 0 mm 3 mps 675 mmHg 41%
12:00 +30°C° 0 mm 3 mps 674 mmHg 40%
13:00 +31°C° 0 mm 3 mps 673 mmHg 39%
14:00 +31°C° 0 mm 2 mps 673 mmHg 38%
15:00 +30°C° 0 mm 2 mps 672 mmHg 41%
16:00 +30°C° 0 mm 2 mps 672 mmHg 44%
17:00 +29°C° 0 mm 2 mps 671 mmHg 46%
18:00 +27°C° 0 mm 1 mps 672 mmHg 52%
19:00 +25°C° 0 mm 1 mps 672 mmHg 58%
20:00 +23°C° 0 mm 1 mps 672 mmHg 64%
21:00 +23°C° 0 mm 1 mps 672 mmHg 62%
22:00 +23°C° 0 mm 1 mps 673 mmHg 60%
23:00 +23°C° 0 mm 1 mps 673 mmHg 59%

Tomorrow, 10 July, Friday

Time Temperature Precipitation Wind Pressure Humidity
00:00 +23°C° 0 mm 1 mps 673 mmHg 63%
01:00 +22°C° 0 mm 1 mps 673 mmHg 68%
02:00 +21°C° 0 mm 1 mps 672 mmHg 72%
03:00 +21°C° 0 mm 1 mps 672 mmHg 72%
04:00 +22°C° 0 mm 1 mps 673 mmHg 73%
05:00 +22°C° 0 mm 1 mps 673 mmHg 73%
06:00 +22°C° 0.1 mm 1 mps 673 mmHg 71%
07:00 +23°C° 0.1 mm 1 mps 674 mmHg 69%
08:00 +24°C° 0.1 mm 1 mps 675 mmHg 68%
09:00 +26°C° 0.2 mm 1 mps 675 mmHg 62%
10:00 +27°C° 0.2 mm 2 mps 675 mmHg 57%
11:00 +29°C° 0.2 mm 2 mps 675 mmHg 52%
12:00 +30°C° 0.1 mm 2 mps 674 mmHg 49%
13:00 +30°C° 0.1 mm 2 mps 674 mmHg 47%
14:00 +31°C° 0.1 mm 3 mps 673 mmHg 44%
15:00 +30°C° 0.1 mm 2 mps 673 mmHg 48%
16:00 +29°C° 0.1 mm 2 mps 672 mmHg 52%
17:00 +28°C° 0.1 mm 2 mps 672 mmHg 56%
18:00 +26°C° 0.1 mm 2 mps 672 mmHg 62%
19:00 +25°C° 0.1 mm 1 mps 672 mmHg 68%
20:00 +23°C° 0.1 mm 1 mps 673 mmHg 75%
21:00 +23°C° 0 mm 1 mps 673 mmHg 75%
22:00 +23°C° 0 mm 1 mps 673 mmHg 76%
23:00 +20°C° 0 mm 0 mps 673 mmHg 76%

Day after tomorrow, 11 July, Saturday

Time Temperature Precipitation Wind Pressure Humidity
00:00 +20°C° 0 mm 0 mps 673 mmHg 77%
01:00 +22°C° 0 mm 1 mps 673 mmHg 78%
02:00 +21°C° 0 mm 1 mps 672 mmHg 78%
03:00 +21°C° 0 mm 1 mps 673 mmHg 78%
04:00 +21°C° 0 mm 1 mps 673 mmHg 78%
05:00 +21°C° 0 mm 1 mps 673 mmHg 78%
06:00 +22°C° 0 mm 1 mps 673 mmHg 74%
07:00 +24°C° 0 mm 1 mps 674 mmHg 69%
08:00 +25°C° 0 mm 1 mps 675 mmHg 64%
09:00 +26°C° 0 mm 1 mps 675 mmHg 59%
10:00 +28°C° 0 mm 2 mps 675 mmHg 53%
11:00 +29°C° 0 mm 2 mps 675 mmHg 47%
12:00 +30°C° 0 mm 2 mps 674 mmHg 46%
13:00 +30°C° 0 mm 2 mps 674 mmHg 44%
14:00 +31°C° 0 mm 2 mps 673 mmHg 43%
15:00 +30°C° 0 mm 2 mps 673 mmHg 46%
16:00 +29°C° 0 mm 2 mps 672 mmHg 49%
17:00 +28°C° 0 mm 2 mps 672 mmHg 52%
18:00 +27°C° 0 mm 2 mps 672 mmHg 58%
19:00 +25°C° 0 mm 1 mps 673 mmHg 63%
20:00 +23°C° 0 mm 1 mps 673 mmHg 68%
21:00 +23°C° 0 mm 1 mps 673 mmHg 68%
22:00 +23°C° 0 mm 1 mps 673 mmHg 67%
23:00 +23°C° 0 mm 1 mps 673 mmHg 66%

12 July, Sunday

Time Temperature Precipitation Wind Pressure Humidity
00:00 +22°C° 0 mm 1 mps 673 mmHg 67%
01:00 +22°C° 0 mm 1 mps 673 mmHg 67%
02:00 +22°C° 0 mm 1 mps 672 mmHg 67%
03:00 +22°C° 0 mm 1 mps 672 mmHg 68%
04:00 +21°C° 0 mm 1 mps 673 mmHg 69%
05:00 +21°C° 0 mm 1 mps 673 mmHg 70%
06:00 +23°C° 0 mm 1 mps 673 mmHg 65%
07:00 +24°C° 0 mm 1 mps 674 mmHg 60%
08:00 +26°C° 0 mm 1 mps 675 mmHg 55%
09:00 +28°C° 0 mm 1 mps 675 mmHg 50%
10:00 +29°C° 0 mm 2 mps 675 mmHg 45%
11:00 +31°C° 0 mm 2 mps 675 mmHg 41%
12:00 +31°C° 0 mm 3 mps 674 mmHg 41%
13:00 +31°C° 0 mm 3 mps 674 mmHg 42%
14:00 +32°C° 0 mm 4 mps 673 mmHg 43%
15:00 +30°C° 0.1 mm 3 mps 672 mmHg 47%
16:00 +29°C° 0.1 mm 3 mps 672 mmHg 50%
17:00 +28°C° 0.1 mm 2 mps 672 mmHg 54%
18:00 +27°C° 0 mm 2 mps 672 mmHg 59%
19:00 +25°C° 0 mm 1 mps 672 mmHg 65%
20:00 +23°C° 0 mm 1 mps 672 mmHg 70%
21:00 +23°C° 0 mm 1 mps 673 mmHg 70%
22:00 +23°C° 0 mm 1 mps 673 mmHg 71%
23:00 +22°C° 0 mm 1 mps 673 mmHg 71%

13 July, Monday

Time Temperature Precipitation Wind Pressure Humidity
00:00 +22°C° 0 mm 1 mps 673 mmHg 72%
01:00 +22°C° 0 mm 1 mps 672 mmHg 72%
02:00 +22°C° 0 mm 1 mps 672 mmHg 72%
03:00 +21°C° 0 mm 1 mps 672 mmHg 72%
04:00 +21°C° 0 mm 1 mps 672 mmHg 72%
05:00 +21°C° 0 mm 1 mps 672 mmHg 71%
06:00 +22°C° 0 mm 1 mps 673 mmHg 65%
07:00 +23°C° 0 mm 1 mps 674 mmHg 60%
08:00 +25°C° 0 mm 2 mps 675 mmHg 54%
09:00 +26°C° 0 mm 2 mps 675 mmHg 47%
10:00 +28°C° 0 mm 3 mps 675 mmHg 41%
11:00 +29°C° 0 mm 3 mps 675 mmHg 34%
12:00 +30°C° 0 mm 3 mps 674 mmHg 33%
13:00 +30°C° 0 mm 3 mps 673 mmHg 32%
14:00 +31°C° 0 mm 3 mps 673 mmHg 31%
15:00 +30°C° 0 mm 3 mps 672 mmHg 34%
16:00 +29°C° 0 mm 3 mps 672 mmHg 37%
17:00 +28°C° 0 mm 2 mps 671 mmHg 40%
18:00 +26°C° 0 mm 2 mps 672 mmHg 45%
19:00 +24°C° 0 mm 1 mps 672 mmHg 49%
20:00 +22°C° 0 mm 1 mps 672 mmHg 54%
21:00 +22°C° 0 mm 1 mps 672 mmHg 53%
22:00 +22°C° 0 mm 1 mps 673 mmHg 53%
23:00 +21°C° 0 mm 1 mps 673 mmHg 52%

14 July, Tuesday

Time Temperature Precipitation Wind Pressure Humidity
00:00 +21°C° 0 mm 1 mps 672 mmHg 53%
01:00 +21°C° 0 mm 1 mps 672 mmHg 55%
02:00 +20°C° 0 mm 1 mps 672 mmHg 56%
03:00 +20°C° 0 mm 1 mps 672 mmHg 55%
04:00 +20°C° 0 mm 1 mps 672 mmHg 55%
05:00 +20°C° 0 mm 1 mps 672 mmHg 54%
06:00 +22°C° 0 mm 1 mps 673 mmHg 50%
07:00 +22°C° 0 mm 0 mps 674 mmHg 46%
08:00 +23°C° 0 mm 0 mps 675 mmHg 42%
09:00 +27°C° 0 mm 1 mps 675 mmHg 40%
10:00 +28°C° 0 mm 2 mps 675 mmHg 37%
11:00 +30°C° 0 mm 3 mps 675 mmHg 34%
12:00 +30°C° 0 mm 3 mps 674 mmHg 34%
13:00 +30°C° 0 mm 3 mps 674 mmHg 35%
14:00 +30°C° 0 mm 4 mps 673 mmHg 35%
15:00 +30°C° 0 mm 3 mps 673 mmHg 38%
16:00 +29°C° 0 mm 3 mps 672 mmHg 40%
17:00 +28°C° 0 mm 2 mps 672 mmHg 43%
18:00 +26°C° 0 mm 2 mps 672 mmHg 48%
19:00 +24°C° 0 mm 1 mps 672 mmHg 53%
20:00 +23°C° 0 mm 1 mps 672 mmHg 58%
21:00 +22°C° 0 mm 1 mps 673 mmHg 58%
22:00 +22°C° 0 mm 1 mps 673 mmHg 57%
23:00 +22°C° 0 mm 1 mps 673 mmHg 56%
Show more